Weather in Chartres

France     48°26′31″N   1°29′27″E
temp.,
°C
wind,
m/s
gust,
m/s
humid.,
%
clouds,
%
prec.,
mm/h
press.,
hPa
HPBL,
m
11 may, tue
tue1123:00+9s34864 0.1 100846
02:00+7sw228921 0.1 100919
05:00+7w2290100 0.0 100810
08:00+9wnw1186100 0.0 100966
11:00+11w6784100 0.0 1010685
14:00+12wsw576993 0.1 10111130
17:00+14wsw71059100 0.1 10111883
20:00+12wsw711795 0.3 1012923
12 may, wed
wed1223:00+7sw49940 0.0 1014198
02:00+5sw411962 0.0 1014248
05:00+4ssw379891 0.0 1014163
08:00+6ssw3792100 0.0 1014206
11:00+11ssw4573100 0.0 1013988
14:00+13s4569100 0.4 10111145
17:00+14s5670100 0.8 10101184
20:00+12sse497984 1.1 1009611
13 may, thu
thu1323:00+8sse3894100 0.1 1009161
02:00+9sw4997100 2.6 1008529
05:00+5wsw510940 0.2 1010307
08:00+5ssw499686 0.2 1010296
11:00+11sw588766 0.1 1009815
14:00+11sw5881100 0.8 10091084
17:00+13sw688488 2.4 10071043
20:00+11sw4991100 3.8 1007600
14 may, fri
fri1423:00+8wsw359718 1.4 100886
02:00+6wsw33935 1.4 100944
05:00+5sw49940 0.0 1009167
08:00+6sw5109698 0.0 1009324
11:00+10sw698298 0.0 1010826
14:00+12sw797647 0.4 10101226
17:00+12wsw7108278 1.2 10101112
20:00+11w510895 2.4 1010707
15 may, sat
sat1523:00+7w3795100 0.1 1013121
02:00+7wsw3495100 0.1 101281
05:00+6ssw3697100 0.0 1011117
08:00+8ssw41097100 0.0 1010358
11:00+8s61396100 2.4 1009753
14:00+8s71497100 6.5 1007760
17:00+9ssw51098100 3.4 1005549
20:00+11sw51096100 3.8 1005520